Zurück zum Katalog

STARLINK-11328

AktivKommunikationVLEO
NORAD 61880·PAYLOAD·🇺🇸 United States

Gestartet Nov 9, 2024 von Vandenberg Space Force Base

Loading…

Nächste Überflüge (nächste 24 Stunden)

TLE

AktuellSource: CelesTrak SupGP

Epoche: Sep 14, 2026, 21:09 UTC

1 61880C 24204G   26257.88173611 -.00035014  00000+0 -28833-3 0  2570
2 61880  53.1565 143.6718 0001068  97.8088  81.7012 15.69734432    19

Verfolge STARLINK-11328 in Echtzeit mit AllMySat

Download on the App Store